GW4563 Weather Reports


time (UTC)temp
F
wind
direction
speed
knots
gust
knots
rain 1hr
in
rain 24hr
in
rain mn
in
humidity
%
barometer
mb
20260506091812 62 137 0.0 1.7 0.00 0.00 0.00 85 1016.3
20260506091310 62 120 0.9 1.7 0.00 0.00 0.00 84 1016.4
20260506090808 62 99 0.9 1.7 0.00 0.00 0.00 83 1016.3
20260506090305 62 102 0.9 1.7 0.00 0.00 0.00 84 1016.4
20260506085801 62 104 0.0 1.7 0.00 0.00 0.00 84 1016.3
20260506085257 62 115 0.9 1.7 0.00 0.00 0.00 84 1016.3
20260506084754 62 110 1.7 1.7 0.00 0.00 0.00 83 1016.5
20260506084251 62 120 0.9 1.7 0.00 0.00 0.00 82 1016.4
20260506083748 62 119 1.7 1.7 0.00 0.00 0.00 82 1016.4
20260506083245 62 102 0.9 2.6 0.00 0.00 0.00 82 1016.4
20260506082743 61 110 1.7 1.7 0.00 0.00 0.00 82 1016.5
20260506082238 61 103 0.9 1.7 0.00 0.00 0.00 81 1016.2
20260506081736 61 124 1.7 1.7 0.00 0.00 0.00 82 1016.3
20260506081233 61 118 1.7 1.7 0.00 0.00 0.00 82 1016.4
20260506080731 61 111 1.7 1.7 0.00 0.00 0.00 81 1016.2
20260506080227 61 105 1.7 1.7 0.00 0.00 0.00 81 1016.6
20260506073211 61 125 0.9 1.7 0.00 0.00 0.00 79 1016.6
20260506072708 61 140 0.0 1.7 0.00 0.00 0.00 79 1016.5
20260506072206 61 122 0.9 1.7 0.00 0.00 0.00 79 1016.7
20260506071703 61 126 0.9 1.7 0.00 0.00 0.00 79 1016.9
20260506071201 61 129 1.7 1.7 0.00 0.00 0.00 79 1017.0
20260506070658 61 135 0.9 1.7 0.00 0.00 0.00 79 1017.1
20260506070155 60 105 0.0 1.7 0.00 0.00 0.00 78 1017.1
20260506062131 61 110 1.7 1.7 0.00 0.00 0.00 75 1017.4
20260506061627 62 139 0.0 1.7 0.00 0.00 0.00 74 1017.1
20260506061125 62 109 0.9 0.9 0.00 0.00 0.00 74 1017.3
20260506060624 61 127 0.9 1.7 0.00 0.00 0.00 74 1017.3
20260506060120 61 136 0.0 0.9 0.00 0.00 0.00 73 1017.2
20260506051052 62 129 0.0 0.9 0.00 0.00 0.00 71 1016.8
20260506050550 62 120 0.0 0.9 0.00 0.00 0.00 71 1016.9
20260506045040 63 120 0.9 1.7 0.00 0.00 0.00 69 1017.0
20260506044538 62 115 0.9 1.7 0.00 0.00 0.00 69 1017.2
20260506044035 62 125 0.0 1.7 0.00 0.00 0.00 69 1017.3
20260506043532 62 107 0.9 1.7 0.00 0.00 0.00 69 1017.4
20260506043031 62 110 0.0 1.7 0.00 0.00 0.00 69 1017.5
20260506042529 62 133 0.9 1.7 0.00 0.00 0.00 69 1017.2
20260506042027 62 129 1.7 1.7 0.00 0.00 0.00 69 1017.2
20260506041525 62 89 0.0 1.7 0.00 0.00 0.00 69 1017.0
20260506041022 63 126 0.0 1.7 0.00 0.00 0.00 69 1017.1
20260506040520 63 115 0.0 0.9 0.00 0.00 0.00 69 1016.9
20260506040015 63 121 0.0 1.7 0.00 0.00 0.00 68 1017.0
20260506035512 63 134 0.9 1.7 0.00 0.00 0.00 69 1016.9
20260506035009 63 136 1.7 2.6 0.00 0.00 0.00 68 1016.7
20260506034507 63 133 0.9 1.7 0.00 0.00 0.00 69 1017.3
20260506034004 63 127 0.9 1.7 0.00 0.00 0.00 68 1017.3
20260506033501 63 51 0.9 1.7 0.00 0.00 0.00 67 1017.4
20260506032957 63 116 0.0 1.7 0.00 0.00 0.00 67 1017.3
20260506032455 63 128 0.0 1.7 0.00 0.00 0.00 66 1017.3
20260506031951 63 141 0.9 0.9 0.00 0.00 0.00 65 1017.2
20260506031449 64 125 1.7 1.7 0.00 0.00 0.00 65 1017.2
20260506030946 64 134 1.7 1.7 0.00 0.00 0.00 65 1017.1
20260506030444 64 110 0.0 1.7 0.00 0.00 0.00 64 1017.3
20260506025941 64 131 0.0 0.9 0.00 0.00 0.00 64 1017.2
20260506025437 64 123 0.0 0.9 0.00 0.00 0.00 63 1017.3
20260506024934 64 117 0.0 1.7 0.00 0.00 0.00 63 1017.1
20260506024431 64 119 1.7 1.7 0.00 0.00 0.00 64 1017.1
20260506023927 64 141 0.0 0.9 0.00 0.00 0.00 63 1017.3
20260506023424 64 135 0.0 0.9 0.00 0.00 0.00 63 1017.1
20260506022921 64 121 0.9 1.7 0.00 0.00 0.00 63 1017.2
20260506022418 64 136 0.9 1.7 0.00 0.00 0.00 63 1017.1
20260506021916 64 125 0.0 1.7 0.00 0.00 0.00 63 1017.4
20260506021413 64 131 0.0 1.7 0.00 0.00 0.00 63 1017.2
20260506020910 65 180 1.7 1.7 0.00 0.00 0.00 62 1017.2
20260506020408 65 110 0.0 1.7 0.00 0.00 0.00 61 1017.1
20260506015905 65 89 0.0 1.7 0.00 0.00 0.00 60 1017.1
20260506015402 65 114 0.9 1.7 0.00 0.00 0.00 60 1017.0
20260506014859 65 110 0.9 1.7 0.00 0.00 0.00 60 1016.9
20260506014356 66 129 0.0 1.7 0.00 0.00 0.00 60 1017.1
20260506013852 66 131 0.0 0.9 0.00 0.00 0.00 59 1017.0
20260506013350 66 121 1.7 1.7 0.00 0.00 0.00 59 1016.8
20260506012846 66 135 0.9 1.7 0.00 0.00 0.00 58 1017.0
20260506012343 67 117 0.0 1.7 0.00 0.00 0.00 58 1016.9
20260506011840 67 128 0.0 1.7 0.00 0.00 0.00 57 1017.0
20260506011337 67 129 0.0 0.9 0.00 0.00 0.00 55 1016.8
20260506010835 68 125 0.9 0.9 0.00 0.00 0.00 54 1016.8
20260506010333 68 135 0.0 0.9 0.00 0.00 0.00 54 1016.8
20260506005829 69 139 0.0 1.7 0.00 0.00 0.00 53 1016.8
20260506005326 69 136 0.9 0.9 0.00 0.00 0.00 52 1016.8
20260506004822 69 143 0.0 1.7 0.00 0.00 0.00 53 1016.8
20260506004320 70 121 0.9 1.7 0.00 0.00 0.00 56 1016.9
20260506003815 70 126 0.9 0.9 0.00 0.00 0.00 53 1017.1
20260506003312 71 132 0.0 0.9 0.00 0.00 0.00 50 1017.1
20260506002808 71 135 0.0 0.9 0.00 0.00 0.00 50 1017.1
20260506002306 71 135 0.0 0.9 0.00 0.00 0.00 52 1017.1
20260506001801 71 129 0.9 0.9 0.00 0.00 0.00 50 1016.9
20260506001258 72 140 0.0 0.9 0.00 0.00 0.00 49 1017.0
20260506000755 72 147 0.0 0.9 0.00 0.00 0.00 50 1016.9
20260506000254 72 217 0.0 0.9 0.00 0.00 0.00 49 1017.1
20260505235749 72 217 0.0 0.9 0.00 0.00 0.00 50 1016.8
20260505235247 73 94 0.9 1.7 0.00 0.00 0.00 49 1016.8
20260505234744 73 142 0.0 1.7 0.00 0.00 0.00 54 1016.8
20260505234241 73 119 0.0 1.7 0.00 0.00 0.00 51 1016.8
20260505233737 74 81 0.0 1.7 0.00 0.00 0.00 51 1016.8
20260505233236 74 137 0.0 2.6 0.00 0.00 0.00 48 1016.9
20260505232733 74 24 2.6 2.6 0.00 0.00 0.00 50 1016.9
20260505232230 74 66 0.0 1.7 0.00 0.00 0.00 48 1016.8
20260505231726 75 103 0.9 1.7 0.00 0.00 0.00 49 1016.9
20260505231226 75 144 1.7 1.7 0.00 0.00 0.00 47 1016.7
20260505230723 75 80 0.0 1.7 0.00 0.00 0.00 47 1016.7
20260505230220 75 157 0.0 1.7 0.00 0.00 0.00 48 1016.8
20260505225716 75 114 0.9 1.7 0.00 0.00 0.00 48 1016.4
20260505225213 76 299 0.0 3.5 0.00 0.00 0.00 44 1016.6
20260505224709 76 96 1.7 1.7 0.00 0.00 0.00 48 1016.6
20260505224207 76 71 0.9 1.7 0.00 0.00 0.00 45 1016.5
20260505223704 76 120 1.7 2.6 0.00 0.00 0.00 48 1016.4
20260505223200 76 84 2.6 2.6 0.00 0.00 0.00 48 1016.7
20260505222656 77 153 1.7 1.7 0.00 0.00 0.00 48 1016.6
20260505222152 78 133 1.7 1.7 0.00 0.00 0.00 44 1016.7
20260505221650 78 347 1.7 1.7 0.00 0.00 0.00 42 1016.3
20260505221146 80 137 1.7 1.7 0.00 0.00 0.00 42 1016.4
20260505220643 80 117 1.7 1.7 0.00 0.00 0.00 41 1016.5
20260505220141 80 112 1.7 3.5 0.00 0.00 0.00 39 1016.4
20260505215638 80 61 2.6 2.6 0.00 0.00 0.00 40 1016.2
20260505215136 79 171 1.7 3.5 0.00 0.00 0.00 41 1016.3
20260505214634 79 116 1.7 3.5 0.00 0.00 0.00 45 1016.4
20260505214131 80 167 0.0 1.7 0.00 0.00 0.00 45 1016.5
20260505213629 81 95 1.7 3.5 0.00 0.00 0.00 39 1016.4
20260505213125 82 166 1.7 2.6 0.00 0.00 0.00 36 1016.8
20260505212621 80 238 0.9 3.5 0.00 0.00 0.00 42 1016.4
20260505212119 81 122 1.7 2.6 0.00 0.00 0.00 47 1016.6
20260505211615 82 144 2.6 3.5 0.00 0.00 0.00 42 1016.5
20260505211113 82 172 0.0 2.6 0.00 0.00 0.00 40 1016.5
20260505210609 80 147 0.9 3.5 0.00 0.00 0.00 41 1016.6
20260505210106 82 120 1.7 2.6 0.00 0.00 0.00 38 1016.6
20260505205604 83 160 1.7 1.7 0.00 0.00 0.00 39 1016.5
20260505205102 83 141 0.0 1.7 0.00 0.00 0.00 40 1016.9
20260505204558 82 162 1.7 2.6 0.00 0.00 0.00 40 1017.0
20260505204056 82 319 1.7 2.6 0.00 0.00 0.00 39 1016.9
20260505203552 82 44 2.6 2.6 0.00 0.00 0.00 41 1017.0
20260505203050 81 107 1.7 1.7 0.00 0.00 0.00 39 1017.0
20260505202545 81 54 0.9 2.6 0.00 0.00 0.00 38 1017.0
20260505202041 82 115 2.6 2.6 0.00 0.00 0.00 40 1017.2
20260505201538 83 97 2.6 3.5 0.00 0.00 0.00 38 1017.1
20260505201036 82 128 0.0 3.5 0.00 0.00 0.00 39 1017.3
20260505200534 83 166 0.9 1.7 0.00 0.00 0.00 38 1017.4
20260505200030 83 157 1.7 2.6 0.00 0.00 0.00 37 1017.4
20260505195526 81 235 0.9 3.5 0.00 0.00 0.00 40 1017.5
20260505195024 81 78 1.7 2.6 0.00 0.00 0.00 38 1017.4
20260505194521 80 189 0.0 1.7 0.00 0.00 0.00 40 1017.5
20260505194016 80 202 0.0 1.7 0.00 0.00 0.00 42 1017.7
20260505193514 81 348 4.3 4.3 0.00 0.00 0.00 39 1017.8
20260505193011 81 25 2.6 3.5 0.00 0.00 0.00 38 1017.9
20260505192509 81 185 1.7 1.7 0.00 0.00 0.00 40 1017.8
20260505192007 80 121 1.7 3.5 0.00 0.00 0.00 40 1017.6
20260505191505 80 193 1.7 3.5 0.00 0.00 0.00 41 1017.9
20260505191003 80 128 1.7 2.6 0.00 0.00 0.00 43 1017.7
20260505190457 80 274 1.7 1.7 0.00 0.00 0.00 42 1017.8
20260505185952 80 54 2.6 3.5 0.00 0.00 0.00 41 1018.0
20260505185450 79 115 2.6 4.3 0.00 0.00 0.00 44 1018.1
20260505184946 80 166 1.7 2.6 0.00 0.00 0.00 42 1018.0
20260505184443 79 122 1.7 2.6 0.00 0.00 0.00 42 1018.3
20260505183939 78 170 0.9 3.5 0.00 0.00 0.00 50 1018.2
20260505183437 78 109 1.7 3.5 0.00 0.00 0.00 45 1018.4
20260505182933 78 108 1.7 2.6 0.00 0.00 0.00 46 1018.6
20260505182431 77 114 2.6 3.5 0.00 0.00 0.00 43 1018.4
20260505181926 77 105 1.7 3.5 0.00 0.00 0.00 44 1018.6
20260505181424 78 128 1.7 2.6 0.00 0.00 0.00 44 1018.6
20260505180921 77 109 3.5 3.5 0.00 0.00 0.00 45 1018.9
20260505180417 77 97 2.6 3.5 0.00 0.00 0.00 48 1018.8
20260505175914 78 108 1.7 2.6 0.00 0.00 0.00 46 1018.9
20260505175410 79 181 1.7 2.6 0.00 0.00 0.00 46 1019.2
20260505174907 77 70 1.7 2.6 0.00 0.00 0.00 45 1019.1
20260505174404 77 179 0.9 3.5 0.00 0.00 0.00 45 1019.3
20260505173900 77 110 1.7 3.5 0.00 0.00 0.00 46 1019.2
20260505173357 76 160 1.7 3.5 0.00 0.00 0.00 47 1019.3
20260505172854 76 102 2.6 3.5 0.00 0.00 0.00 45 1019.6
20260505172352 76 141 1.7 2.6 0.00 0.00 0.00 46 1019.2
20260505171851 76 180 2.6 2.6 0.00 0.00 0.00 45 1019.4
20260505171348 75 113 1.7 3.5 0.00 0.00 0.00 47 1019.4
20260505170844 76 99 2.6 2.6 0.00 0.00 0.00 47 1019.3
20260505170342 75 135 3.5 3.5 0.00 0.00 0.00 48 1019.2
20260505165837 75 99 2.6 3.5 0.00 0.00 0.00 53 1019.5
20260505165333 74 105 2.6 4.3 0.00 0.00 0.00 50 1019.6
20260505164829 75 131 2.6 2.6 0.00 0.00 0.00 50 1019.4
20260505164325 75 153 2.6 2.6 0.00 0.00 0.00 49 1019.5
20260505163824 75 84 1.7 3.5 0.00 0.00 0.00 47 1019.5
20260505163322 74 155 2.6 3.5 0.00 0.00 0.00 52 1019.5
20260505162820 73 134 2.6 5.2 0.00 0.00 0.00 53 1019.4
20260505162316 73 172 1.7 1.7 0.00 0.00 0.00 53 1019.8
20260505161813 73 148 1.7 2.6 0.00 0.00 0.00 53 1019.5
20260505161311 72 135 0.9 2.6 0.00 0.00 0.00 51 1019.6
20260505160808 72 17 1.7 2.6 0.00 0.00 0.00 52 1019.7
20260505160306 71 114 1.7 3.5 0.00 0.00 0.00 53 1019.7
20260505153244 70 114 1.7 1.7 0.00 0.00 0.00 61 1020.0
20260505152741 70 147 1.7 3.5 0.00 0.00 0.00 61 1020.2
20260505152237 70 134 1.7 2.6 0.00 0.00 0.00 61 1020.0
20260505151732 69 130 1.7 2.6 0.00 0.00 0.00 65 1020.0
20260505151230 69 77 1.7 2.6 0.00 0.00 0.00 67 1019.8
20260505150726 69 103 1.7 3.5 0.00 0.00 0.00 62 1019.8
20260505150223 69 126 0.9 2.6 0.00 0.00 0.00 66 1019.8
20260505140651 66 78 1.7 1.7 0.00 0.00 0.00 66 1019.4
20260505140148 65 72 0.9 1.7 0.00 0.00 0.00 69 1019.4
20260505130112 55 95 0.9 1.7 0.00 0.00 0.00 90 1018.7
20260505124602 54 89 0.9 1.7 0.00 0.00 0.00 91 1018.7
20260505124058 53 84 0.0 1.7 0.00 0.00 0.00 91 1018.6
20260505123554 53 93 0.9 1.7 0.00 0.00 0.00 91 1018.7
20260505123050 53 127 1.7 1.7 0.00 0.00 0.00 91 1018.6
20260505122547 52 124 1.7 1.7 0.00 0.00 0.00 91 1018.7
20260505122045 52 81 1.7 1.7 0.00 0.00 0.00 92 1018.6
20260505121541 52 131 1.7 2.6 0.00 0.00 0.00 92 1018.7
20260505121038 52 125 1.7 2.6 0.00 0.00 0.00 92 1018.6
20260505120534 52 115 0.9 1.7 0.00 0.00 0.00 92 1018.3
20260505120030 51 117 0.9 1.7 0.00 0.00 0.00 92 1018.4
20260505115524 51 87 0.9 1.7 0.00 0.00 0.00 92 1018.3
20260505115022 51 68 0.0 1.7 0.00 0.00 0.00 92 1018.3
20260505114519 51 106 0.9 1.7 0.00 0.00 0.00 92 1018.1
20260505114015 51 123 0.9 1.7 0.00 0.00 0.00 92 1018.0
20260505113512 51 135 1.7 1.7 0.00 0.00 0.00 92 1018.0
20260505113009 51 115 0.9 1.7 0.00 0.00 0.00 92 1018.2
20260505112504 51 126 1.7 1.7 0.00 0.00 0.00 92 1018.1
20260505112002 51 130 1.7 1.7 0.00 0.00 0.00 91 1018.2
20260505111456 51 151 0.9 1.7 0.00 0.00 0.00 91 1018.0
20260505110953 50 128 1.7 1.7 0.00 0.00 0.00 91 1017.9
20260505110449 50 122 0.9 1.7 0.00 0.00 0.00 91 1017.8
20260505101921 51 124 0.0 1.7 0.00 0.00 0.00 89 1017.9
20260505101420 51 119 0.9 1.7 0.00 0.00 0.00 89 1017.9
20260505100916 51 117 0.0 1.7 0.00 0.00 0.00 89 1018.1
20260505100413 51 133 0.9 1.7 0.00 0.00 0.00 88 1017.9
20260505095909 51 112 0.9 1.7 0.00 0.00 0.00 88 1017.9
20260505095406 51 111 0.9 1.7 0.00 0.00 0.00 88 1018.0
20260505094902 51 118 0.0 1.7 0.00 0.00 0.00 88 1018.0
20260505094400 51 84 0.0 1.7 0.00 0.00 0.00 88 1018.1
20260505093855 51 119 1.7 2.6 0.00 0.00 0.00 88 1017.9
20260505093353 51 115 0.0 1.7 0.00 0.00 0.00 88 1018.0
20260505092850 51 128 1.7 1.7 0.00 0.00 0.00 88 1018.1
20260505092348 51 113 0.9 1.7 0.00 0.00 0.00 87 1018.2